[Iaude] MPEC N127: 2014 DA208 [a=1.97,e=0.36,i=2.0,H=23.6]
    mpec at cfa.harvard.edu 
    mpec at cfa.harvard.edu
       
    Wed Jul 10 22:01:29 EDT 2024
    
    
  
M.P.E.C. 2024-N127                                Issued 2024 July 11, 02:00 UT
     The Minor Planet Electronic Circulars contain information on unusual
         minor planets, routine data on comets and natural satellites,
         and occasional editorial announcements.  They are published
    on behalf of Division F of the International Astronomical Union by the
          Minor Planet Center, Smithsonian Astrophysical Observatory,
                          Cambridge, MA 02138, U.S.A.
			  
             Prepared using the Tamkin Foundation Computer Network
                              MPC at CFA.HARVARD.EDU
            URL https://www.minorplanetcenter.net/    ISSN 1523-6714
                                   2014 DA208                                   
Observations:
     K14DK8A* C2014 02 28.45256 11 27 34.523-03 06 40.62         21.9 wLEN127F51
     K14DK8A  C2014 02 28.46463 11 27 34.288-03 06 36.71         22.4 wLEN127F51
     K14DK8A  C2014 02 28.47670 11 27 34.081-03 06 32.77         22.3 wLEN127F51
     K14DK8A  C2014 02 28.48878 11 27 33.828-03 06 28.79         22.5 wLEN127F51
     K14DK8A |C2014 03 03.08253511 27 08.477-02 51 05.10         22.77gVEN127W84
     K14DK8A |C2014 03 03.17428111 27 06.726-02 50 31.63         23.54gVEN127W84
     K14DK8A |C2014 03 03.27459211 27 04.623-02 49 54.47         22.43gVEN127W84
     K14DK8A |C2014 03 03.37789511 27 02.619-02 49 15.53         22.47gVEN127W84
     K14DK8A |C2014 03 04.17731411 26 54.517-02 44 12.99         23.42gVEN127W84
     K14DK8A |C2014 03 04.26791011 26 52.552-02 43 38.27         22.51gVEN127W84
     K14DK8A |C2014 03 04.37187611 26 50.449-02 42 57.72         22.56gVEN127W84
     K14DK8A |C2014 03 04.39385611 26 50.057-02 42 49.10         22.81gVEN127W84
     K14DK8A |C2014 03 04.39604111 26 50.026-02 42 48.25         23.05gVEN127W84
     K14DK8A |C2014 03 05.08137711 26 43.649-02 38 19.88         22.43gVEN127W84
     K14DK8A |C2014 03 05.19132611 26 41.359-02 37 36.70         22.95gVEN127W84
     K14DK8A |C2014 03 05.28462611 26 39.265-02 36 59.49         22.68gVEN127W84
     K14DK8A |C2014 03 05.37915911 26 37.343-02 36 21.30         22.55gVEN127W84
Observer details:
F51 Pan-STARRS 1, Haleakala.  Observers N. Primak, A. Schultz, T. Goggia, M.
    Willman.  Measurer P.-S. 1. S. Consortium.  1.8-m Ritchey-Chretien + CCD.
W84 Cerro Tololo-DECam.  Observer D. E. Survey.  Measurers J. Moeyens, M.
    Juric, S. Nelson, A. Koumjian, K. Kiker, N. Tellis, D. Veronese-Milin, A.
    Posner, E. Lu, C. Fiaschetti, D. Remy.  4.0-m Reflector + CCD.
Orbital elements:
2014 DA208                                               Earth MOID = 0.2860 AU
Epoch 2024 Mar. 31.0 TT = JDT 2460400.5                 Veres                   
M 242.51056              (2000.0)            P               Q                  
n   0.35547715     Peri.  277.41010     -0.67356365     -0.73886703             
a   1.9736111      Node   214.95861     +0.69096897     -0.61999559             
e   0.3572676      Incl.    1.96885     +0.26243838     -0.26397155             
P   2.77           H   23.60          G   0.15           U   8                  
Residuals in seconds of arc
140228 F51  0.0   0.0     140303 W84  0.0   0.0     140304 W84  0.0   0.0
140228 F51  0.1-  0.0     140303 W84  0.1-  0.0     140305 W84  0.0   0.0
140228 F51  0.2+  0.0     140304 W84  0.1-  0.2+    140305 W84  0.2+  0.1-
140228 F51  0.1-  0.1+    140304 W84  0.0   0.0     140305 W84  0.0   0.0
140303 W84  0.1-  0.0     140304 W84  0.1-  0.0     140305 W84  0.0   0.0
140303 W84  0.0   0.0     140304 W84  0.1-  0.0
Ephemeris:
2014 DA208               a,e,i = 1.97, 0.36, 2                   q = 1.2685
Date    TT    R. A. (2000) Decl.     Delta      r    Elong.  Phase     V
2024 06 11    01 31 22.2 +10 29 46   2.6431  2.2264    55.2    22.0    28.5
...
2024 06 26    01 56 48.8 +12 49 10   2.4359  2.1706    62.9    24.6    28.4
...
2024 07 04    02 10 29.7 +13 59 27   2.3212  2.1396    67.0    25.9    28.3
...
2024 07 10    02 20 47.6 +14 49 56   2.2337  2.1159    70.1    26.9    28.2
2024 07 11    02 22 30.8 +14 58 09   2.2190  2.1118    70.6    27.0    28.2
2024 07 12    02 24 13.9 +15 06 18   2.2043  2.1078    71.1    27.2    28.2
...
2024 07 18    02 34 33.4 +15 53 58   2.1157  2.0835    74.2    28.0    28.1
...
2024 07 26    02 48 20.2 +16 53 56   1.9966  2.0504    78.4    29.0    27.9
...
2024 08 10    03 14 04.5 +18 33 54   1.7725  1.9863    86.4    30.6    27.7
M. P. C. Staff               (C) Copyright 2024 MPC           M.P.E.C. 2024-N127
    
    
More information about the Iaude
mailing list